Dewpoint
46 45 46 48 48 47 48 48 46 46 45 45 46 46 46 46 44 37 37 37 37 40 32 25 22 23 26 34 35 36 30 25 25 27 28 28 25 26 26 26 24 22 21 19 20
46 46 45 46 46 46 46 45 45 46 46 46 46 45 45 44 37 34 35 38 39 34 27 26 25 24 20 25 22 32 29 25 25 25 25 27 29 30 30 30 30 29 28 26 26
47 47 45 46 45 45 45 45 46 46 46 45 45 44 44 38 31 23 35 37 36 31 26 25 25 23 19 22 23 24 20 19 18 18 19 18 18 22 21 20 26 22 21 20 24
48 47 45 45 45 45 45 46 46 46 46 45 44 43 42 32 3 23 31 30 33 25 24 24 22 20 19 18 20 16 17 18 19 19 18 18 19 18 19 20 20 19 19 19 18
47 46 46 45 45 45 45 46 46 45 45 44 42 41 30 22 19 27 32 29 29 21 19 21 21 21 19 19 17 15 15 16 16 16 16 13 14 15 14 15 16 17 18 18 18
46 47 45 45 45 45 45 46 45 43 42 41 41 37 27 17 24 25 21 24 23 21 18 21 19 21 19 17 17 17 16 13 15 14 14 16 18 13 7 6 9 12 13 14 14
46 45 44 44 45 45 45 45 42 41 40 39 38 32 27 18 24 20 18 19 21 19 17 19 21 19 19 17 18 17 15 14 14 15 14 15 13 11 12 11 9 8 7 11 15
45 45 45 45 45 44 45 44 40 38 38 38 36 28 22 25 23 16 17 18 19 20 21 21 23 22 20 19 18 15 15 12 9 12 14 14 10 12 14 13 11 11 11 11 12
45 45 45 44 44 44 43 40 37 38 37 32 21 20 13 20 11 16 18 15 19 21 22 20 22 20 19 16 13 15 9 9 10 12 12 12 12 13 13 12 11 11 12 12 12
45 45 44 44 44 43 39 38 35 32 29 19 21 14 13 9 17 20 19 19 19 20 19 19 19 17 16 14 3 6 9 12 12 12 14 14 14 15 15 14 13 12 12 12 11
45 45 44 44 44 41 35 31 27 20 27 23 22 22 22 22 25 19 17 18 20 18 13 16 16 12 11 15 14 14 15 15 14 15 15 15 16 19 19 18 16 15 14 13 11
45 45 45 44 44 39 33 30 30 28 24 25 26 27 26 26 18 13 19 15 15 12 15 12 10 9 14 16 16 16 16 13 13 13 14 12 13 15 15 14 16 15 14 13 11
45 45 45 44 42 35 33 33 37 32 19 19 23 22 16 16 12 12 17 17 15 15 15 8 8 13 14 15 13 13 14 13 14 13 11 13 13 10 7 11 18 17 14 13 7
45 45 45 44 34 34 30 36 36 26 5 12 8 15 14 17 14 16 17 15 15 11 17 11 16 18 17 15 14 12 14 14 11 11 7 14 4 6 7 10 17 19 24 25 24
45 45 45 43 36 32 32 36 36 24 -3 3 7 16 17 12 13 13 20 14 13 11 10 8 13 12 13 13 13 11 12 10 13 12 12 8 9 5 14 12 14 16 19 25 27
46 45 45 38 35 33 36 35 25 10 -5 4 9 8 11 13 15 15 15 18 18 14 15 14 16 15 15 14 13 12 12 10 7 2 -8 6 10 6 11 15 15 16 18 22 27
46 45 43 37 31 34 34 23 11 3 7 5 2 9 11 12 16 16 12 5 2 1 -4 12 14 16 14 4 8 3 -3 -7 -10 -14 -7 0 1 7 14 17 19 19 19 23 26
47 46 40 35 35 34 26 17 -4 7 8 8 9 10 11 13 13 9 3 3 11 2 10 -3 -2 11 14 11 4 3 3 6 -4 -4 -0 2 3 12 12 14 16 18 20 21 22
47 39 36 35 35 33 22 4 10 10 9 9 11 8 7 11 7 5 1 2 8 10 -1 -7 1 9 11 16 11 -1 3 14 10 -8 -6 -0 11 15 10 11 13 14 16 19 21
42 36 35 35 34 28 18 15 11 12 15 16 10 8 2 7 2 5 4 9 7 18 15 4 4 8 15 12 13 10 16 9 0 -8 -13 -5 2 3 9 11 11 13 15 17 20
37 33 32 35 31 24 16 10 16 17 16 17 16 11 10 11 5 1 6 9 13 16 19 -2 6 2 7 -2 -5 7 9 15 14 8 -0 -5 -5 9 12 13 12 13 16 17 19
36 28 33 33 25 20 8 16 18 18 19 21 22 17 15 14 11 8 10 9 13 14 2 9 5 -5 -1 6 9 10 14 17 7 -0 7 5 -1 16 15 15 15 14 16 17 19
33 33 34 31 22 15 20 20 21 20 20 20 20 21 21 14 10 12 13 14 13 14 3 5 6 -1 -5 -1 2 1 15 17 16 13 2 1 -1 15 15 14 14 13 15 16 17
33 26 28 30 27 21 20 19 19 22 20 20 20 22 16 12 16 11 11 13 16 16 18 18 13 8 1 1 -1 6 9 13 13 3 3 4 5 10 12 11 12 13 15 15 16
31 26 28 21 23 24 24 23 21 19 21 24 22 19 15 12 8 12 13 14 16 17 16 15 1 -5 4 7 6 6 7 9 9 7 4 1 5 10 12 11 12 14 14 14 14
29 27 22 26 25 22 24 20 18 20 23 20 19 17 16 16 12 11 13 16 13 12 10 16 1 -3 5 2 -10 -4 7 10 13 11 10 9 5 13 14 14 12 12 12 12 13
35 34 29 24 24 22 18 18 18 18 18 23 25 23 18 17 19 19 21 23 20 12 12 10 6 5 -5 -7 -6 -2 1 9 8 11 9 5 9 10 11 11 11 11 12 11 12
Lifted_Index
16 16 16 15 15 15 15 15 14 14 14 14 13 13 13 14 13 13 13 13 13 14 15 15 15 14 14 12 11 9 7 6 6 6 7 8 9 8 9 9 9 9 9 8 8
16 16 16 16 15 15 15 15 14 14 14 13 13 13 13 14 14 13 13 13 14 15 16 16 15 15 13 13 12 9 8 7 7 7 8 8 9 8 8 9 9 9 9 9 9
16 16 16 16 16 16 15 15 14 14 14 13 13 13 14 14 14 14 14 15 15 16 17 17 16 15 13 12 12 10 9 9 10 9 9 9 8 8 8 9 9 9 9 9 9
15 16 16 16 16 16 15 15 14 14 14 14 14 14 15 14 13 14 16 16 16 17 17 17 16 14 13 12 12 11 11 11 11 11 10 9 9 8 8 9 10 10 9 9 8
16 16 16 16 16 16 15 15 15 15 15 14 14 15 15 14 14 16 17 17 17 17 17 17 16 14 13 13 13 12 12 12 12 11 11 10 10 9 9 10 11 11 10 9 8
16 16 16 16 16 15 15 15 15 15 15 15 15 15 15 15 16 17 18 18 17 17 16 15 15 14 13 12 12 12 11 11 10 9 9 9 9 9 10 11 12 12 11 10 10
16 16 16 16 15 15 15 15 15 16 16 16 15 15 15 15 17 18 18 17 17 16 15 14 13 12 12 11 10 10 9 8 7 5 5 5 6 7 9 10 11 11 12 12 11
16 16 16 15 15 15 15 15 16 16 16 16 16 15 15 16 17 17 17 16 15 14 13 12 11 11 10 9 8 7 6 5 3 3 2 2 3 4 6 8 9 10 11 12 12
15 15 15 15 15 15 15 16 17 16 16 16 16 15 15 15 16 16 15 14 13 12 11 11 10 9 8 7 6 5 3 2 2 2 2 2 2 2 3 5 6 8 9 10 11
15 15 15 15 15 15 16 17 16 16 16 16 15 15 14 15 15 15 14 12 11 10 9 9 8 7 6 4 3 3 2 1 1 2 2 2 2 2 2 2 3 5 7 9 10
14 14 14 14 15 16 17 16 15 14 14 14 14 14 14 14 14 13 12 11 10 9 8 7 6 5 4 3 3 2 2 1 2 2 2 2 2 2 2 2 2 3 5 7 9
14 14 14 14 14 16 16 16 15 14 12 12 13 13 14 13 12 11 11 10 8 7 6 6 4 4 3 3 3 2 2 2 2 2 2 2 2 2 2 1 1 2 3 6 7
14 14 13 13 14 15 16 16 16 14 11 10 11 12 12 11 10 9 9 9 7 6 5 5 4 3 3 3 3 2 2 2 2 3 2 2 2 2 2 1 2 2 3 4 6
14 13 13 13 14 15 15 16 16 13 8 7 9 10 10 9 8 8 8 8 7 6 5 4 3 3 3 3 2 2 2 2 3 2 2 2 2 2 2 2 2 2 3 3 4
13 13 13 13 14 14 15 16 14 10 6 5 7 8 7 7 7 7 7 7 6 5 4 4 3 2 2 3 3 2 3 3 3 2 2 2 2 2 2 2 2 3 3 2 2
12 12 13 13 14 14 15 14 11 7 4 4 5 5 5 4 5 5 6 6 5 4 4 3 3 3 3 3 3 3 3 2 2 2 1 2 2 2 2 2 3 3 3 3 2
12 12 13 13 13 14 14 11 8 5 4 4 4 3 3 3 3 4 4 4 4 4 3 3 3 3 3 3 3 2 2 1 1 1 1 2 2 2 3 3 3 4 4 4 3
11 11 12 13 13 14 12 8 5 5 5 4 3 2 2 2 2 2 2 3 4 4 3 3 2 3 3 2 2 2 2 1 1 1 1 2 2 2 3 4 4 5 5 5 5
11 11 12 13 14 13 10 7 5 5 5 4 3 1 1 1 1 2 2 3 4 4 4 3 3 3 3 2 3 2 2 2 2 1 1 2 2 3 3 4 5 5 6 6 5
12 12 12 13 14 12 9 6 6 6 5 4 3 1 1 1 1 1 1 3 4 5 5 4 3 3 3 2 2 3 3 3 2 1 1 1 2 3 4 5 5 6 6 6 6
12 12 12 13 13 10 8 7 7 6 5 4 3 2 1 1 1 1 1 2 4 5 5 5 4 3 2 2 2 3 3 3 2 1 1 1 2 4 5 6 6 6 7 7 6
12 11 12 12 11 9 8 7 7 6 5 4 3 3 2 1 0 0 1 2 4 5 5 5 4 2 2 2 2 3 3 3 2 2 2 2 3 5 6 6 6 7 7 7 7
11 11 12 11 10 8 8 8 8 6 5 5 4 3 2 1 1 1 1 2 4 5 5 5 4 2 1 2 2 3 3 3 2 2 2 2 3 4 6 6 6 7 7 7 7
11 11 11 11 10 9 9 9 8 7 6 5 5 4 3 2 2 1 1 2 3 4 5 5 4 3 2 2 2 2 2 2 2 2 2 2 3 4 5 6 7 7 7 7 7
12 12 12 12 11 10 10 9 9 8 7 6 5 4 3 3 2 1 1 1 2 4 5 5 4 3 2 2 2 2 2 2 2 2 2 3 3 4 6 6 7 7 7 7 7
13 13 13 13 12 12 11 10 9 8 7 6 4 4 3 3 2 1 1 1 2 3 4 4 3 2 2 2 2 2 1 2 2 2 3 3 3 5 6 7 7 7 8 8 7
14 14 14 14 13 12 12 11 10 9 8 6 4 3 3 3 2 1 1 2 2 3 3 4 3 2 2 2 2 1 1 2 2 2 2 3 3 5 6 6 7 7 8 8 8